DARAJ65 OIFM-OIYY

Flight info

Callsign DARAJ65
Flight time 0h 24m
Altitude FL230
Route LADA2A LADAL R654 TOVTA TOVT1D
Aircraft CL60/M-SADE3FGHIJ3J4J7P2RWXY/HB1D1

Departure

Time 2026-05-07 13:37
Airport Isfahan Shahid Beheshti International Airport (OIFM)

Arrival

Time 2026-05-07 14:02
Airport Shahid Sadooghi Airport (OIYY)
Time Latitude Longitude Altitude Speed Heading
2026-05-07 12:18 32.74678 51.87126 5086 ft 0 kts 204°
2026-05-07 13:29 32.74675 51.87124 5085 ft 2 kts 207°
2026-05-07 13:29 32.74675 51.87093 5085 ft 5 kts 292°
2026-05-07 13:29 32.74691 51.87051 5085 ft 6 kts 295°
2026-05-07 13:29 32.74710 51.87004 5084 ft 6 kts 298°
2026-05-07 13:30 32.74726 51.86952 5084 ft 7 kts 279°
2026-05-07 13:30 32.74731 51.86887 5084 ft 9 kts 277°
2026-05-07 13:30 32.74735 51.86814 5085 ft 9 kts 254°
2026-05-07 13:30 32.74716 51.86726 5085 ft 12 kts 263°
2026-05-07 13:31 32.74774 51.86666 5085 ft 13 kts 346°
2026-05-07 13:31 32.74862 51.86643 5086 ft 13 kts 349°
2026-05-07 13:31 32.74942 51.86600 5087 ft 18 kts 301°
2026-05-07 13:31 32.74930 51.86396 5088 ft 27 kts 255°
2026-05-07 13:32 32.74871 51.86114 5088 ft 35 kts 255°
2026-05-07 13:32 32.74816 51.85826 5088 ft 35 kts 257°
2026-05-07 13:32 32.74760 51.85521 5089 ft 36 kts 257°
2026-05-07 13:32 32.74707 51.85217 5089 ft 36 kts 259°
2026-05-07 13:33 32.74648 51.84919 5092 ft 35 kts 258°
2026-05-07 13:33 32.74589 51.84630 5092 ft 35 kts 257°
2026-05-07 13:33 32.74549 51.84330 5095 ft 35 kts 265°
2026-05-07 13:33 32.74640 51.84062 5095 ft 34 kts 300°
2026-05-07 13:34 32.74785 51.83850 5095 ft 32 kts 343°
2026-05-07 13:34 32.74884 51.83856 5095 ft 0 kts 73°
2026-05-07 13:36 32.74921 51.84050 5095 ft 60 kts 77°
2026-05-07 13:36 32.75063 51.84873 5092 ft 139 kts 76°
2026-05-07 13:37 32.75281 51.86209 5277 ft 181 kts 73°
2026-05-07 13:37 32.75455 51.87735 5919 ft 196 kts 76°
2026-05-07 13:37 32.75585 51.89376 6803 ft 202 kts 81°
2026-05-07 13:37 32.75267 51.91169 7393 ft 237 kts 109°
2026-05-07 13:38 32.74581 51.92994 8206 ft 253 kts 112°
2026-05-07 13:38 32.73866 51.94897 9160 ft 259 kts 115°
2026-05-07 13:38 32.73095 51.96959 10080 ft 266 kts 116°
2026-05-07 13:38 32.72261 51.99190 10468 ft 301 kts 115°
2026-05-07 13:39 32.71342 52.01663 10839 ft 332 kts 115°
2026-05-07 13:39 32.70351 52.04343 11695 ft 344 kts 115°
2026-05-07 13:39 32.69374 52.06993 12730 ft 347 kts 115°
2026-05-07 13:39 32.68413 52.09599 13735 ft 350 kts 115°
2026-05-07 13:40 32.67430 52.12264 14670 ft 355 kts 115°
2026-05-07 13:40 32.66411 52.15029 15639 ft 360 kts 115°
2026-05-07 13:40 32.65352 52.17900 16631 ft 364 kts 115°
2026-05-07 13:40 32.64320 52.20694 17549 ft 369 kts 115°
2026-05-07 13:41 32.63279 52.23513 18426 ft 374 kts 116°
2026-05-07 13:41 32.62214 52.26394 19201 ft 381 kts 116°
2026-05-07 13:41 32.61063 52.29506 20025 ft 388 kts 117°
2026-05-07 13:41 32.59979 52.32435 20776 ft 393 kts 117°
2026-05-07 13:42 32.58867 52.35436 21491 ft 400 kts 117°
2026-05-07 13:42 32.57669 52.38667 22257 ft 405 kts 118°
2026-05-07 13:42 32.56455 52.41940 23042 ft 410 kts 118°
2026-05-07 13:42 32.55229 52.45243 23715 ft 417 kts 118°
2026-05-07 13:43 32.54068 52.48367 24393 ft 422 kts 118°
2026-05-07 13:43 32.52853 52.51634 25023 ft 427 kts 118°
2026-05-07 13:43 32.51556 52.55120 25641 ft 433 kts 118°
2026-05-07 13:43 32.50281 52.58541 26234 ft 438 kts 118°
2026-05-07 13:44 32.49008 52.61957 26818 ft 442 kts 118°
2026-05-07 13:44 32.47665 52.65556 27256 ft 450 kts 119°
2026-05-07 13:44 32.46381 52.68989 27339 ft 457 kts 119°
2026-05-07 13:44 32.45038 52.72578 27330 ft 467 kts 119°
2026-05-07 13:45 32.43605 52.76401 27326 ft 479 kts 119°
2026-05-07 13:45 32.42177 52.80212 27329 ft 487 kts 118°
2026-05-07 13:45 32.40729 52.84078 27329 ft 489 kts 118°
2026-05-07 13:45 32.39291 52.87918 27331 ft 487 kts 118°
2026-05-07 13:46 32.37840 52.91791 27334 ft 486 kts 118°
2026-05-07 13:46 32.36440 52.95713 27333 ft 487 kts 117°
2026-05-07 13:46 32.35088 52.99640 27338 ft 487 kts 117°
2026-05-07 13:46 32.33788 53.03409 27323 ft 488 kts 116°
2026-05-07 13:47 32.32420 53.07373 27317 ft 488 kts 116°
2026-05-07 13:47 32.31036 53.11377 27323 ft 488 kts 116°
2026-05-07 13:47 32.29685 53.15277 27328 ft 488 kts 116°
2026-05-07 13:47 32.28373 53.19060 27334 ft 488 kts 116°
2026-05-07 13:48 32.27284 53.22200 27337 ft 483 kts 116°
2026-05-07 13:48 32.25955 53.26039 27337 ft 465 kts 116°
2026-05-07 13:48 32.24683 53.29704 27331 ft 453 kts 117°
2026-05-07 13:48 32.23478 53.33163 27334 ft 450 kts 117°
2026-05-07 13:49 32.22241 53.36704 27240 ft 451 kts 117°
2026-05-07 13:49 32.20981 53.40307 26771 ft 453 kts 116°
2026-05-07 13:49 32.19739 53.43858 26179 ft 450 kts 116°
2026-05-07 13:49 32.18493 53.47418 25563 ft 447 kts 116°
2026-05-07 13:50 32.17263 53.50929 24963 ft 443 kts 116°
2026-05-07 13:50 32.16037 53.54426 24323 ft 439 kts 116°
2026-05-07 13:50 32.14822 53.57885 23692 ft 435 kts 116°
2026-05-07 13:50 32.13638 53.61257 23089 ft 429 kts 116°
2026-05-07 13:51 32.12433 53.64683 22479 ft 423 kts 116°
2026-05-07 13:51 32.11277 53.67966 21895 ft 417 kts 116°
2026-05-07 13:51 32.10149 53.71165 21321 ft 410 kts 116°
2026-05-07 13:51 32.08998 53.74427 20741 ft 403 kts 115°
2026-05-07 13:52 32.07854 53.77669 20176 ft 396 kts 115°
2026-05-07 13:52 32.06740 53.80818 19622 ft 389 kts 115°
2026-05-07 13:52 32.05667 53.83853 19048 ft 382 kts 115°
2026-05-07 13:52 32.04621 53.86807 18533 ft 370 kts 115°
2026-05-07 13:53 32.03629 53.89605 18040 ft 360 kts 115°
2026-05-07 13:53 32.02630 53.92420 17530 ft 351 kts 114°
2026-05-07 13:53 32.01664 53.95138 17030 ft 342 kts 114°
2026-05-07 13:53 32.00701 53.97848 16540 ft 333 kts 114°
2026-05-07 13:54 31.99767 54.00463 16066 ft 325 kts 115°
2026-05-07 13:54 31.98636 54.02748 15649 ft 316 kts 127°
2026-05-07 13:54 31.97330 54.04945 15218 ft 310 kts 126°
2026-05-07 13:54 31.96035 54.07137 14797 ft 305 kts 127°
2026-05-07 13:55 31.94772 54.09275 14375 ft 300 kts 127°
2026-05-07 13:55 31.93533 54.11370 13955 ft 297 kts 127°
2026-05-07 13:55 31.92323 54.13416 13556 ft 294 kts 126°
2026-05-07 13:55 31.91089 54.15502 13145 ft 291 kts 126°
2026-05-07 13:56 31.89885 54.17537 12727 ft 286 kts 126°
2026-05-07 13:56 31.88763 54.19435 12367 ft 281 kts 126°
2026-05-07 13:56 31.87649 54.21317 11995 ft 277 kts 126°
2026-05-07 13:56 31.86546 54.23180 11635 ft 272 kts 126°
2026-05-07 13:57 31.85418 54.25085 11251 ft 269 kts 126°
2026-05-07 13:57 31.84331 54.26920 10902 ft 266 kts 126°
2026-05-07 13:57 31.83218 54.28797 10545 ft 259 kts 126°
2026-05-07 13:57 31.82138 54.30618 10159 ft 249 kts 126°
2026-05-07 13:58 31.81129 54.32320 9876 ft 237 kts 126°
2026-05-07 13:58 31.80184 54.33914 9496 ft 230 kts 126°
2026-05-07 13:58 31.79451 54.35597 9126 ft 213 kts 98°
2026-05-07 13:58 31.79750 54.37307 8371 ft 209 kts 56°
2026-05-07 13:59 31.80905 54.38239 7397 ft 201 kts 10°
2026-05-07 13:59 31.82169 54.37952 6584 ft 185 kts 323°
2026-05-07 13:59 31.83043 54.36915 6216 ft 158 kts 311°
2026-05-07 13:59 31.83817 54.35971 6058 ft 153 kts 312°
2026-05-07 14:00 31.84585 54.35036 5788 ft 159 kts 312°
2026-05-07 14:00 31.85319 54.34097 5255 ft 155 kts 311°
2026-05-07 14:00 31.86042 54.33158 4929 ft 146 kts 311°
2026-05-07 14:00 31.86779 54.32253 4847 ft 151 kts 313°
2026-05-07 14:01 31.87550 54.31317 4580 ft 153 kts 313°
2026-05-07 14:01 31.88295 54.30392 4386 ft 152 kts 312°
2026-05-07 14:01 31.89058 54.29435 4188 ft 151 kts 313°
2026-05-07 14:01 31.89778 54.28537 4088 ft 132 kts 313°
2026-05-07 14:02 31.90181 54.28038 4078 ft 38 kts 313°
2026-05-07 14:02 31.90353 54.27947 4073 ft 26 kts 42°
2026-05-07 14:02 31.90367 54.28139 4074 ft 26 kts 135°
2026-05-07 14:02 31.90233 54.28281 4077 ft 26 kts 138°
2026-05-07 14:03 31.90220 54.28348 4076 ft 5 kts 38°
2026-05-07 14:03 31.90231 54.28353 4076 ft 0 kts